Terug naar catalogus

COSMOS 1736 FUEL CORE

ActiefLEO
NORAD 16809·DEBRIS·🇷🇺 Russia

Gelanceerd Mar 21, 1986 vanaf Baikonur Cosmodrome

Loading…

Volgende Passages (komende 24 uur)

TLE

VersSource: Space-Track

Epoch: Sep 14, 2026, 10:30 UTC

1 16809U 86024E   26257.43753708 -.00000089  00000-0 -11033-5 0  9995
2 16809  64.9876 274.4793 0032083 196.5814 232.4287 13.81698929 44464

Volg COSMOS 1736 FUEL CORE in realtime met AllMySat

Download on the App Store